Hourly Data Report for September 08, 2017

All times are specified in Local Standard Time (LST). Add 1 hour to adjust for Daylight Saving Time where and when it is observed.

HALL BEACH A
NUNAVUT

68°46'33.000" N
81°14'33.000" W
9.10 m
2402354
71293
YUX

Download Data

Hourly Data (September 2017)
Hourly Data Report for September 8, 2017
Temp Definition
°C
Dew Point Temp Definition
°C
Rel Hum Definition
%
Wind Dir Definition
10's deg

Wind Spd Definition
km/h
Visibility Definition
km
Stn Press Definition
kPa
Hmdx Definition


Wind Chill Definition


Weather Definition


TIME
00:00 Legend Double Dagger 1.8 0.9 94 19 30 16.1 100.20     LegendNANA
01:00 Legend Double Dagger 2.0 1.1 94 20 24 16.1 100.14     LegendNANA
02:00 Legend Double Dagger 2.1 1.4 95 20 18 16.1 100.05     LegendNANA
03:00 Legend Double Dagger 2.3 1.7 96 22 18 16.1 100.01     LegendNANA
04:00 Legend Double Dagger 2.4 1.8 96 23 21 16.1 99.94     LegendNANA
05:00 Legend Double Dagger 2.1 1.2 94 27 17 16.1 99.92     LegendNANA
06:00 Legend Double Dagger 1.5 0.6 94 28 17 16.1 99.90     LegendNANA
07:00 Legend Double Dagger 1.1 0.1 93 28 18 16.1 99.83     LegendNANA
08:00 Legend Double Dagger 1.6 0.3 91 29 17 16.1 99.78     LegendNANA
09:00 Legend Double Dagger 1.4 0.2 92 29 17 16.1 99.71     LegendNANA
10:00 Legend Double Dagger 1.6 -0.3 87 32 13 16.1 99.62     LegendNANA
11:00 Legend Double Dagger 1.5 -0.9 84 32 5 16.1 99.52     LegendNANA
12:00 Legend Double Dagger 1.6 -0.7 85 LegendMM 4 16.1 99.44     LegendNANA
13:00 Legend Double Dagger 0.9 -0.2 93 8 11 2.8 99.32     Snow
14:00 Legend Double Dagger 0.3 -0.1 97 9 15 2.4 99.20     Snow
15:00 Legend Double Dagger 0.3 -0.1 97 7 18 1.6 99.05     Snow
16:00 Legend Double Dagger 0.3 0.0 98 7 24 2.4 98.89     Snow
17:00 Legend Double Dagger 0.4 0.1 98 7 24 6.4 98.71     Snow
18:00 Legend Double Dagger 0.3 -0.1 97 5 34 4.8 98.54     Rain,Fog
19:00 Legend Double Dagger 0.1 -0.5 96 5 43 11.3 98.42     Rain
20:00 Legend Double Dagger -0.2 -0.9 95 5 43 3.2 98.33   -8 Snow
21:00 Legend Double Dagger -0.9 -1.6 95 4 52 1.2 98.24   -10 Snow
22:00 Legend Double Dagger -1.6 -2.7 92 4 50 2.8 98.19   -10 Snow
23:00 Legend Double Dagger -1.3 -4.6 78 3 50 16.1 98.12   -10 LegendNANA

Notes on Data Quality.

Legend

  • E = Estimated
  • M = Missing
  • NA = Not Available
  • ‡ = Partner data that is not subject to review by the National Climate Archives
Date modified: